Vorticity
nan nan nan nan nan nan nan nan nan nan nan nan nan nan nan nan nan nan nan nan nan nan nan nan nan nan nan nan nan nan nan nan nan nan nan nan nan nan nan nan nan nan nan nan nan nan nan nan nan
nan 9 5 6 9 6 7 8 8 3 9 9 5 7 2 4 12 12 7 9 9 6 6 6 6 7 6 6 6 7 7 6 6 7 7 6 6 6 5 5 5 6 6 5 5 5 5 5 nan
nan 8 8 4 6 10 8 9 6 7 7 2 -1 6 10 3 3 8 10 9 6 5 8 9 8 6 6 7 6 7 5 6 6 6 7 6 6 6 6 6 5 5 5 5 5 5 6 6 nan
nan 9 6 5 5 9 7 9 8 4 3 7 4 6 4 2 7 13 9 5 5 6 6 6 7 8 9 8 8 8 7 6 6 7 6 6 6 5 5 5 5 5 5 4 5 6 5 4 nan
nan 6 6 8 8 5 6 9 12 2 4 9 3 3 2 7 10 9 6 6 5 5 5 5 7 8 8 8 9 8 8 8 7 8 8 9 9 9 9 8 7 6 5 5 6 6 5 5 nan
nan 6 8 9 7 3 8 13 9 3 3 5 9 4 3 9 9 5 6 6 7 6 5 3 5 8 8 7 7 7 7 7 9 9 8 9 10 10 10 12 12 11 9 10 9 9 10 9 nan
nan 6 6 9 10 7 9 12 7 2 5 6 7 1 3 8 7 7 7 7 7 6 6 6 5 3 3 6 8 7 8 9 9 7 6 7 7 7 6 6 10 12 13 13 12 12 11 11 nan
nan 9 10 9 7 10 9 7 11 9 2 5 9 5 9 13 5 6 5 5 6 6 7 6 5 4 4 2 3 7 7 7 6 9 8 4 4 2 5 4 3 8 9 9 9 8 8 10 nan
nan 7 7 11 9 10 9 5 7 8 9 3 4 8 21 17 5 5 4 4 3 5 7 6 7 7 6 4 3 3 3 6 7 4 7 5 2 5 3 4 4 6 6 5 4 6 5 9 nan
nan 4 7 9 12 6 8 12 10 5 1 4 3 11 15 7 5 4 2 3 4 5 5 6 6 7 5 4 4 2 2 3 7 6 8 10 5 6 5 2 2 3 6 7 5 6 9 7 nan
nan 6 6 6 6 6 10 16 7 9 7 5 6 7 5 3 4 4 5 6 5 4 6 8 7 8 6 5 5 5 5 6 5 6 8 8 6 6 5 4 4 2 5 8 9 8 7 9 nan
nan 9 4 5 5 6 8 9 10 6 6 9 17 12 7 4 5 5 6 6 6 5 6 7 7 8 8 8 8 8 8 7 6 5 9 9 8 7 7 7 7 7 6 7 9 8 6 7 nan
nan 6 7 4 2 7 9 5 10 7 7 15 17 10 5 4 5 6 6 5 5 6 5 7 8 8 8 9 8 7 7 8 8 6 8 10 9 7 8 8 8 7 7 8 7 8 8 9 nan
nan 9 5 6 7 7 9 6 7 8 7 11 9 7 7 7 5 4 6 6 5 5 6 6 7 7 8 8 8 7 8 7 6 6 7 9 9 9 8 8 7 7 7 7 8 7 8 8 nan
nan 10 12 18 13 9 9 6 5 10 8 5 6 8 8 7 7 5 5 5 7 7 6 6 6 7 7 6 5 6 8 7 7 5 5 8 9 9 8 8 7 7 7 8 8 8 9 8 nan
nan 7 10 12 14 14 7 9 13 13 5 5 7 8 9 9 6 6 6 7 6 7 6 5 6 6 6 6 6 8 8 7 7 7 4 6 9 9 9 8 7 7 8 9 8 9 9 9 nan
nan 4 7 3 13 11 7 3 14 16 10 7 8 8 8 8 6 7 6 7 7 7 7 7 6 6 6 5 6 7 7 7 7 7 6 6 7 9 9 8 8 8 9 8 8 8 9 8 nan
nan 11 5 5 9 8 6 8 7 4 9 10 10 10 9 7 7 6 7 7 8 8 8 5 6 6 3 4 5 5 6 7 7 7 7 8 8 8 9 7 7 9 9 8 8 9 10 10 nan
nan 6 4 6 1 7 7 6 3 4 7 8 12 12 9 8 8 5 7 6 6 8 8 6 6 4 3 5 6 6 6 7 7 6 7 7 7 8 10 9 8 9 7 8 10 10 9 10 nan
nan 6 5 5 6 5 6 7 6 7 6 8 10 11 10 9 7 5 6 6 7 6 6 6 6 5 4 6 7 10 8 6 7 6 5 6 8 9 9 9 8 9 8 7 8 11 13 8 nan
nan 6 7 5 9 12 18 15 16 15 11 10 9 10 12 10 6 6 5 5 7 8 7 7 7 5 5 6 7 7 7 8 7 6 5 6 7 8 9 10 9 9 9 7 7 7 10 11 nan
nan 16 10 10 8 10 9 11 20 28 22 12 12 9 10 12 8 7 7 7 6 8 8 8 7 6 7 5 6 5 4 7 7 8 8 7 7 8 8 8 8 9 9 8 8 8 8 10 nan
nan 13 15 11 5 8 3 6 7 11 13 14 18 14 12 13 12 9 7 7 8 8 8 9 8 8 8 7 6 7 9 9 8 8 7 6 5 6 7 8 8 9 9 7 8 8 11 10 nan
nan 10 7 9 13 12 16 7 -0 6 20 17 8 17 17 16 13 11 10 8 8 7 8 9 9 9 9 9 10 11 11 8 9 7 6 5 6 5 6 8 8 8 8 8 8 8 9 10 nan
nan 2 7 12 7 5 17 13 10 12 13 15 11 11 14 14 14 13 10 7 8 8 7 8 10 9 9 9 10 10 8 8 8 7 8 9 7 6 7 8 8 8 8 9 9 9 8 8 nan
nan -2 -1 4 0 9 7 2 9 8 9 8 10 13 14 12 12 12 11 8 8 7 7 8 9 7 7 9 9 9 7 7 8 9 8 7 9 9 8 8 8 8 8 9 10 9 8 8 nan
nan 13 0 4 11 12 5 9 7 5 5 7 11 16 14 12 12 12 11 9 8 8 9 8 7 8 8 7 7 7 8 9 9 9 8 9 10 8 7 8 8 8 8 9 9 9 9 9 nan
nan 13 20 11 14 10 6 13 10 7 12 14 11 11 12 13 13 13 13 11 9 8 8 9 9 8 8 7 7 8 9 8 8 7 8 9 8 8 8 8 9 8 8 9 10 10 9 10 nan
nan 7 6 10 7 8 11 6 15 15 13 10 9 9 11 14 13 13 13 12 9 9 9 8 9 8 7 7 8 8 8 8 8 8 8 8 8 8 9 8 8 8 8 9 11 10 9 10 nan
nan nan nan nan nan nan nan nan nan nan nan nan nan nan nan nan nan nan nan nan nan nan nan nan nan nan nan nan nan nan nan nan nan nan nan nan nan nan nan nan nan nan nan nan nan nan nan nan nan
CAPE
0 0 0 0 0 0 0 0 0 7 304 529 201 437 860 1912 1117 1729 2205 2045 1981 2389 2187 1983 1778 1972 2037 2157 2210 2252 2382 2582 2730 2802 2860 2943 2995 3006 2976 2982 3043 3073 2812 2583 2407 2351 2324 1625 1403
0 0 0 0 0 0 0 0 0 19 850 1035 1180 1360 1351 2254 2534 2290 2152 2188 2222 2244 2329 2148 1578 1854 2015 2030 2216 2389 2444 2419 2551 2674 2691 2726 2667 2717 2816 2921 2988 3104 2814 2556 2410 2320 2617 1837 1325
0 0 0 0 0 0 0 0 0 426 859 1170 1023 1326 1775 2561 2489 2523 2278 2168 2182 2230 2204 1978 1500 1667 1916 2045 2124 2256 2317 2321 2298 2444 2369 2431 2466 2464 2443 2474 2664 2782 2678 2662 2680 2729 2646 1855 1175
0 0 0 0 0 0 0 0 0 669 543 772 1050 1989 2233 1353 2214 2375 2100 1992 2048 2042 2123 1579 1589 1696 1952 2091 2038 2023 1994 2031 2280 2492 2339 2268 2393 2443 2373 2239 2338 2639 2786 2716 2629 2727 2577 1714 1190
0 0 0 0 0 0 0 0 11 358 502 754 848 1557 2086 532 1226 1914 2023 1754 1772 1957 2008 1948 1310 1721 1979 2109 2053 1979 1924 1976 2156 2332 2449 2507 2446 2363 2297 2198 2251 2456 2407 2379 2741 2972 2594 1883 1311
0 0 0 0 0 0 0 0 139 357 400 547 969 1633 2014 233 1206 1199 1285 1520 1665 1820 2000 1843 1392 1252 1230 1338 1278 1195 1238 1339 1509 1717 1997 2117 2081 2138 2139 2141 2259 2277 2305 2351 2394 2303 2042 2284 1714
0 0 0 0 0 0 0 0 147 234 179 633 1338 1325 1360 312 636 877 1172 1407 1630 1927 2169 2189 2103 1404 478 343 372 391 540 681 1032 1158 1162 1317 1160 1213 972 825 1095 1227 1184 1424 1323 1210 1312 1532 1741
0 0 0 0 0 0 0 0 0 141 103 633 635 822 2128 1152 136 767 1057 1294 1475 1826 2212 2260 1964 1823 1468 922 0 0 0 0 111 194 400 595 785 566 295 520 104 200 274 373 384 430 514 641 847
0 0 0 0 0 0 0 0 0 11 3 79 56 482 1647 355 142 706 924 1137 1183 1186 1642 1670 1566 1469 1403 508 0 0 0 0 0 61 0 456 1280 1093 424 0 0 0 0 31 67 156 181 233 319
0 0 0 0 0 0 0 0 0 0 0 4 130 320 725 324 514 1235 1280 1336 1197 964 976 1611 1195 980 629 156 4 0 0 0 5 62 320 754 539 131 0 0 0 0 0 0 0 0 45 497 1498
0 0 0 0 0 0 0 0 0 0 0 60 313 305 665 652 1183 1578 1513 954 657 153 84 559 836 524 445 11 0 0 0 0 0 1 1 1 1 0 0 0 0 0 0 0 0 41 87 250 602
0 0 0 0 0 0 0 0 0 0 0 0 5 298 802 1040 1340 1420 863 114 0 0 0 0 37 76 4 0 0 0 0 0 0 0 0 0 0 0 0 0 0 0 0 0 0 0 0 0 14
0 0 0 0 0 0 0 0 0 0 0 0 0 319 938 1415 1156 724 82 0 0 0 0 0 0 0 0 0 0 0 0 0 0 0 0 0 0 0 0 0 0 0 0 0 0 0 0 0 0
0 0 0 0 0 0 0 0 0 0 0 0 0 161 653 1045 711 42 0 0 0 0 0 0 0 0 0 0 0 0 0 0 0 0 0 0 0 0 0 0 0 0 0 0 0 0 0 0 0
0 0 0 0 0 0 0 0 0 0 0 0 0 1 293 536 186 0 0 0 0 0 0 0 0 0 0 0 0 0 0 0 0 0 0 0 0 0 0 0 0 0 0 0 0 0 0 0 0
0 0 0 0 0 0 0 0 0 0 0 0 0 0 58 141 0 0 0 0 0 0 0 0 0 0 0 0 0 0 0 0 0 0 0 0 0 0 0 0 0 0 0 0 0 0 0 0 0
0 0 0 0 0 0 0 0 0 0 0 0 0 0 0 32 0 0 0 0 0 0 0 0 0 0 0 0 0 0 0 0 0 0 0 0 0 0 0 0 0 0 0 0 0 0 0 0 0
0 0 0 0 0 0 0 0 0 0 0 0 0 0 0 0 0 0 0 0 0 0 0 0 0 0 0 0 0 0 0 0 0 0 0 0 0 0 0 0 0 0 0 0 0 0 0 0 0
0 0 0 0 0 0 0 0 0 0 0 0 0 0 0 0 0 0 0 0 0 0 0 0 0 0 0 0 0 0 0 0 0 0 0 0 0 0 0 0 0 0 0 0 0 0 0 0 0
0 0 0 0 0 0 0 0 0 0 0 0 0 0 0 0 0 0 0 0 0 0 0 0 0 0 0 0 0 0 0 0 0 0 0 0 0 0 0 0 0 0 0 0 0 0 0 0 0
0 0 0 0 0 0 0 0 0 0 0 0 0 0 0 0 0 0 0 0 0 0 0 0 0 0 0 0 0 0 0 0 0 0 0 0 0 0 0 0 0 0 0 0 0 0 0 0 0
0 0 0 0 0 0 0 0 0 0 0 0 0 0 0 0 0 0 0 0 0 0 0 0 0 0 0 0 0 0 0 0 0 0 0 0 0 0 0 0 0 0 0 0 0 0 0 0 0
0 0 0 0 0 0 0 0 0 0 0 0 0 0 0 0 0 0 0 0 0 0 0 0 0 0 0 0 0 0 0 0 0 0 0 0 0 0 0 0 0 0 0 0 0 0 0 0 0
0 0 0 0 0 0 0 0 0 0 0 0 0 0 0 0 0 0 0 0 0 0 0 0 0 0 0 0 0 0 0 0 0 0 0 0 0 0 0 0 0 0 0 0 0 0 0 0 0
0 0 0 0 0 0 0 0 0 0 0 0 0 0 0 0 0 0 0 0 0 0 0 0 0 0 0 0 0 0 0 0 0 0 0 0 0 0 0 0 0 0 0 0 0 0 0 0 0
0 0 3 1 8 0 0 0 0 0 0 0 0 0 0 0 0 0 0 0 0 0 0 0 0 0 0 0 0 0 0 0 0 0 0 0 0 0 0 0 0 0 0 0 0 0 0 0 0
0 0 0 0 0 0 0 0 0 0 0 0 0 0 0 0 0 0 0 0 0 0 0 0 0 0 0 0 0 0 0 0 0 0 0 0 0 0 0 0 0 0 0 0 0 0 0 0 0
0 0 0 0 0 0 0 0 0 0 0 0 0 0 0 0 0 0 0 1 0 0 0 0 0 0 0 0 0 0 0 0 0 0 0 0 0 0 0 0 0 0 0 0 0 0 0 0 0
0 0 0 0 3 4 2 2 0 0 1 0 0 0 0 0 0 0 1 3 1 0 0 0 0 0 0 0 0 0 0 0 0 0 0 0 0 0 0 0 0 0 0 0 0 0 0 0 0
0 0 0 6 0 2 3 1 0 0 0 0 0 0 0 0 0 0 0 0 0 0 0 0 0 0 0 0 0 0 0 0 0 0 0 0 0 0 0 0 0 0 0 0 0 0 0 0 0